Waarnemingen

Advertentie
Mijn weer
Langres, Frankrijk (7283): temperatuur & dauwpunt: 14.02.2019 14:00:00 - 20.02.2019 14:00:00 (CET)Langres, Frankrijk (7283): temperatuur 5cm: 14.02.2019 14:00:00 - 20.02.2019 14:00:00 (CET)Langres, Frankrijk (7283): windsnelheid & windstoten: 14.02.2019 14:00:00 - 20.02.2019 14:00:00 (CET)Langres, Frankrijk (7283): windrichting: 14.02.2019 14:00:00 - 20.02.2019 14:00:00 (CET)Langres, Frankrijk (7283): luchtdruk: 14.02.2019 14:00:00 - 20.02.2019 14:00:00 (CET)Langres, Frankrijk (7283): zicht: 14.02.2019 14:00:00 - 20.02.2019 14:00:00 (CET)Langres, Frankrijk (7283): Zonneschijnduur: 14.02.2019 14:00:00 - 20.02.2019 14:00:00 (CET)Langres, Frankrijk (7283): neerslag: 14.02.2019 14:00:00 - 20.02.2019 14:00:00 (CET)
Datum & Tijd tt [°C] td [°C] tt 5cm [°C] ff [km/u] ff [kn] fx [km/u] fx [kn] dd ppp [hPa] vv [km] sd [min] rr [mm]
20.02.2019 14:00:00 - - - - - - - - - - - -
20.02.2019 13:00:00 12,7 4,9 14,8 5 3 14 8 Z 1024,3 19 60 0,0
20.02.2019 12:00:00 10,9 4,8 13,3 9 5 16 9 ZZW 1024,7 17 60 0,0
20.02.2019 11:00:00 10,1 5,3 12,3 4 2 12 6 ZZO 1024,6 15 60 0,0
20.02.2019 10:00:00 9,1 6,2 6,4 8 5 12 7 ZZO 1024,3 11 60 0,0
20.02.2019 09:00:00 5,7 4,7 0,9 5 3 9 5 ZZO 1024,7 5 58 0,0
20.02.2019 08:00:00 3,6 2,6 -1,0 3 2 8 5 OZO 1024,6 3,1 0 0,0
20.02.2019 07:00:00 3,6 2,6 -1,3 3 2 5 3 ZO 1024,1 9 0 0,0
20.02.2019 06:00:00 4,0 3,1 -1,5 4 2 9 5 Z 1023,8 15 0 0,0
20.02.2019 05:00:00 3,9 3,0 -1,7 3 2 6 3 Z 1023,6 11 0 0,0
20.02.2019 04:00:00 3,7 2,8 -1,5 4 2 6 3 ZZO 1023,6 7 0 0,0
20.02.2019 03:00:00 4,0 3,1 -1,2 2 1 7 4 Z 1024,0 7 0 0,0
20.02.2019 02:00:00 3,6 2,6 -0,7 4 2 9 5 ZZO 1024,2 4,5 0 0,0
20.02.2019 01:00:00 4,1 2,8 0,0 5 3 7 4 ZZO 1023,9 8 0 0,0
20.02.2019 00:00:00 5,3 3,9 1,9 3 2 5 3 O 1023,6 10 0 0,0
19.02.2019 23:00:00 5,0 3,7 0,8 4 2 6 3 ONO 1023,8 8 0 0,0
19.02.2019 22:00:00 6,0 4,3 3,6 3 1 4 2 NO 1023,5 10 0 0,0
19.02.2019 21:00:00 5,8 4,4 -0,2 3 2 5 3 ONO 1023,3 10 0 0,0
19.02.2019 20:00:00 5,3 3,8 0,5 3 1 5 3 NO 1023,4 9 0 0,0
19.02.2019 19:00:00 5,9 3,7 2,1 4 2 9 5 N 1023,0 11 0 0,0
19.02.2019 18:00:00 7,4 4,4 7,0 4 2 11 6 NNW 1022,3 16 0 0,0
19.02.2019 17:00:00 8,2 4,6 8,4 7 4 13 7 NW 1022,2 20 0 0,0
19.02.2019 16:00:00 8,5 4,5 8,9 3 2 12 6 NNW 1022,4 19 0 0,0
19.02.2019 15:00:00 8,4 4,8 8,6 7 4 13 7 ZW 1022,3 20 0 0,0
19.02.2019 14:00:00 8,2 4,8 9,0 8 4 14 8 Z 1022,5 20 0 0,0
19.02.2019 13:00:00 8,5 4,1 8,9 5 3 11 6 ZZW 1022,8 20 2 0,0
19.02.2019 12:00:00 7,5 3,5 7,3 6 3 11 6 WZW 1023,6 19 0 0,0
19.02.2019 11:00:00 6,8 3,4 6,9 6 3 12 7 W 1023,4 19 17 0,0
19.02.2019 10:00:00 6,5 3,1 5,4 5 3 13 7 ZW 1023,1 19 2 0,0
19.02.2019 09:00:00 4,8 1,8 4,1 6 4 14 8 ZZW 1022,9 20 20 0,0
19.02.2019 08:00:00 4,3 1,3 3,8 8 5 16 9 ZW 1022,2 20 0 0,0
19.02.2019 07:00:00 4,4 1,2 3,8 6 3 19 11 ZZW 1021,5 20 0 0,0
19.02.2019 06:00:00 4,1 1,3 3,5 7 4 16 9 ZW 1021,3 20 0 0,0
19.02.2019 05:00:00 4,1 1,1 2,7 5 3 16 9 ZW 1021,2 20 0 0,0
19.02.2019 04:00:00 3,7 0,7 2,6 9 5 17 9 ZZW 1021,0 20 0 0,0
19.02.2019 03:00:00 4,2 0,9 3,3 10 6 31 17 ZW 1021,1 20 0 0,0
19.02.2019 02:00:00 5,0 1,1 4,3 16 9 30 16 ZZW 1020,7 20 0 0,0
19.02.2019 01:00:00 5,7 1,2 5,0 17 9 34 18 Z 1020,6 20 0 0,0
19.02.2019 00:00:00 6,4 0,9 5,8 21 11 35 19 ZZW 1020,3 20 0 0,0
18.02.2019 23:00:00 6,8 0,5 5,8 21 11 41 22 Z 1020,0 20 0 0,0
18.02.2019 22:00:00 7,5 0,5 6,5 24 13 39 21 Z 1020,0 20 0 0,0
18.02.2019 21:00:00 8,0 0,5 6,5 21 11 44 24 Z 1019,8 20 0 0,0
18.02.2019 20:00:00 8,1 1,0 6,1 13 7 21 12 ZZW 1019,8 20 0 0,0
18.02.2019 19:00:00 8,5 0,9 7,1 13 7 24 13 ZZW 1019,5 20 0 0,0
18.02.2019 18:00:00 9,7 1,1 8,4 12 6 30 16 Z 1018,8 20 41 0,0
18.02.2019 17:00:00 11,7 1,6 12,4 13 7 32 18 Z 1018,4 20 60 0,0
18.02.2019 16:00:00 12,3 0,7 14,6 19 11 32 17 ZZW 1018,5 20 60 0,0
18.02.2019 15:00:00 13,3 2,2 14,7 18 10 34 18 Z 1018,4 20 60 0,0
18.02.2019 14:00:00 12,1 2,3 14,1 18 10 32 17 Z 1019,2 20 60 0,0
18.02.2019 13:00:00 11,1 2,6 13,0 22 12 37 20 Z 1020,1 20 60 0,0
18.02.2019 12:00:00 9,3 3,5 11,3 22 12 45 24 Z 1021,0 20 60 0,0
18.02.2019 11:00:00 7,8 3,5 9,6 28 15 44 24 Z 1021,5 18 60 0,0
18.02.2019 10:00:00 6,7 3,7 8,0 21 12 40 22 Z 1021,8 19 60 0,0
18.02.2019 09:00:00 5,4 3,4 2,9 16 9 29 16 Z 1022,1 15 54 0,0
18.02.2019 08:00:00 3,6 2,1 2,8 14 8 37 20 Z 1022,6 14 0 0,0
18.02.2019 07:00:00 3,9 2,1 3,0 22 12 41 22 Z 1022,0 20 0 0,0
18.02.2019 06:00:00 4,5 1,9 3,6 26 14 38 21 Z 1022,1 20 0 0,0
18.02.2019 05:00:00 4,9 1,6 3,8 17 9 42 23 ZZW 1022,4 20 0 0,0
18.02.2019 04:00:00 5,3 1,4 4,5 26 14 45 24 Z 1022,3 20 0 0,0
18.02.2019 03:00:00 5,6 0,9 4,8 23 12 45 24 Z 1022,7 20 0 0,0
18.02.2019 02:00:00 6,5 0,6 5,7 26 14 44 24 ZZW 1022,6 20 0 0,0
18.02.2019 01:00:00 7,2 0,2 6,2 23 13 42 23 Z 1022,6 20 0 0,0
18.02.2019 00:00:00 7,9 0,1 6,9 22 12 40 22 Z 1022,6 20 0 0,0
17.02.2019 23:00:00 8,6 -0,2 7,0 19 10 35 19 Z 1022,6 20 0 0,0
17.02.2019 22:00:00 9,0 -0,1 1,8 12 7 24 13 Z 1022,9 20 0 0,0
17.02.2019 21:00:00 6,4 0,1 0,6 8 4 13 7 Z 1023,3 20 0 0,0
17.02.2019 20:00:00 7,6 -0,4 1,4 7 4 11 6 Z 1023,2 20 0 0,0
17.02.2019 19:00:00 8,1 0,1 2,7 8 4 16 9 Z 1022,8 20 0 0,0
17.02.2019 18:00:00 9,4 0,0 6,4 14 8 28 15 ZZO 1022,2 20 39 0,0
17.02.2019 17:00:00 14,2 0,8 15,6 14 8 24 13 Z 1021,5 20 60 0,0
17.02.2019 16:00:00 15,7 1,0 19,1 16 8 29 16 Z 1021,5 20 60 0,0
17.02.2019 15:00:00 15,6 -0,2 18,5 13 7 27 14 Z 1021,9 20 60 0,0
17.02.2019 14:00:00 14,3 0,5 16,6 11 6 32 18 ZZW 1022,6 20 60 0,0
17.02.2019 13:00:00 12,7 -0,2 15,1 19 10 36 20 Z 1023,3 20 60 0,0
17.02.2019 12:00:00 11,3 -0,2 13,0 24 13 47 25 Z 1024,0 20 60 0,0
17.02.2019 11:00:00 9,5 -0,1 10,3 27 15 53 29 Z 1024,2 20 60 0,0
17.02.2019 10:00:00 7,7 -0,3 8,3 31 17 54 29 Z 1024,6 20 60 0,0
17.02.2019 09:00:00 6,5 -0,3 4,4 24 13 50 27 ZZW 1025,1 20 54 0,0
17.02.2019 08:00:00 5,2 -0,4 4,5 24 13 57 31 ZZW 1025,2 20 0 0,0
17.02.2019 07:00:00 5,8 -0,5 5,1 31 17 57 31 ZZW 1024,7 20 0 0,0
17.02.2019 06:00:00 6,6 -0,6 5,4 31 17 53 28 ZZW 1024,7 20 0 0,0
17.02.2019 05:00:00 6,5 -1,2 5,6 27 15 54 29 ZZW 1025,1 20 0 0,0
17.02.2019 04:00:00 6,9 -1,0 6,0 30 16 53 28 Z 1025,1 20 0 0,0
17.02.2019 03:00:00 7,1 -1,3 5,9 27 15 45 25 Z 1025,3 20 0 0,0
17.02.2019 02:00:00 7,9 -1,4 6,5 26 14 44 24 Z 1025,3 20 0 0,0
17.02.2019 01:00:00 8,4 -1,2 2,3 22 12 37 20 Z 1025,8 20 0 0,0
17.02.2019 00:00:00 5,0 0,0 0,2 16 8 22 12 Z 1026,8 19 0 0,0
16.02.2019 23:00:00 4,2 -0,4 0,3 11 6 16 9 ZZO 1027,4 20 0 0,0
16.02.2019 22:00:00 4,0 -0,8 0,4 14 7 16 8 ZZO 1027,5 20 0 0,0
16.02.2019 21:00:00 5,5 -0,6 0,3 10 5 15 8 Z 1027,2 20 0 0,0
16.02.2019 20:00:00 7,0 -0,5 0,6 6 3 9 5 Z 1027,2 20 0 0,0
16.02.2019 19:00:00 8,1 -0,2 0,9 5 3 8 4 ZO 1027,3 20 0 0,0
16.02.2019 18:00:00 9,5 0,6 5,6 7 4 11 6 ZZO 1026,8 20 38 0,0
16.02.2019 17:00:00 12,6 1,6 14,1 8 5 17 9 ZO 1026,4 20 60 0,0
16.02.2019 16:00:00 15,2 2,0 17,7 13 7 20 11 ZZO 1026,0 20 60 0,0
16.02.2019 15:00:00 15,4 2,2 17,7 12 7 20 11 Z 1026,1 19 60 0,0
16.02.2019 14:00:00 13,8 2,7 16,6 14 7 22 12 ZZO 1027,1 20 60 0,0
16.02.2019 13:00:00 12,7 0,7 13,9 14 8 31 17 Z 1027,7 20 60 0,0
16.02.2019 12:00:00 10,6 0,6 13,3 17 9 35 19 ZZW 1028,6 19 60 0,0
16.02.2019 11:00:00 10,9 0,9 11,2 19 10 34 18 Z 1028,3 20 60 0,0
16.02.2019 10:00:00 8,5 1,4 10,3 12 7 27 15 ZZW 1028,9 14 60 0,0
16.02.2019 09:00:00 7,0 1,9 1,0 12 6 18 10 Z 1029,1 15 52 0,0
16.02.2019 08:00:00 3,3 -0,3 -0,5 7 4 14 8 Z 1029,7 13 0 0,0
16.02.2019 07:00:00 5,0 0,7 -0,8 7 4 14 8 ZZW 1028,9 16 0 0,0
16.02.2019 06:00:00 4,5 -0,5 0,5 6 4 14 8 Z 1029,2 17 0 0,0
16.02.2019 05:00:00 4,1 -0,1 -0,8 6 3 10 6 ZZO 1029,3 19 0 0,0
16.02.2019 04:00:00 3,9 -0,5 0,1 9 5 16 9 ZZO 1029,4 18 0 0,0
16.02.2019 03:00:00 2,7 -0,9 0,1 13 7 16 9 ZZO 1029,8 17 0 0,0
16.02.2019 02:00:00 4,0 -0,8 -0,4 11 6 16 8 ZZO 1029,8 19 0 0,0
16.02.2019 01:00:00 7,1 0,5 3,1 8 4 14 8 OZO 1029,1 20 0 0,0
16.02.2019 00:00:00 8,1 0,6 5,3 9 5 15 8 ZO 1028,8 20 0 0,0
15.02.2019 23:00:00 8,1 0,3 5,1 8 5 18 10 OZO 1029,0 20 0 0,0
15.02.2019 22:00:00 8,5 0,5 1,3 8 4 13 7 ZO 1029,0 20 0 0,0
15.02.2019 21:00:00 6,8 0,0 2,0 10 5 14 7 ZZO 1029,2 20 0 0,0
15.02.2019 20:00:00 7,6 0,1 3,7 8 5 12 7 ZZO 1029,3 20 0 0,0
15.02.2019 19:00:00 7,1 0,7 5,4 11 6 16 8 ZZO 1029,6 18 0 0,0
15.02.2019 18:00:00 8,4 1,3 6,7 11 6 12 7 ZZO 1029,4 20 36 0,0
15.02.2019 17:00:00 14,1 4,1 14,7 8 5 16 9 ZZO 1028,4 20 60 0,0
15.02.2019 16:00:00 14,3 2,8 16,8 9 5 16 9 ZZO 1028,8 20 60 0,0
15.02.2019 15:00:00 14,2 1,8 17,7 11 6 20 11 ZO 1029,1 20 60 0,0
15.02.2019 14:00:00 14,7 1,6 15,3 15 8 22 12 ZZO 1029,7 20 60 0,0
15.02.2019 13:00:00 12,3 1,0 14,2 10 6 20 11 OZO 1030,8 20 60 0,0
15.02.2019 12:00:00 11,1 0,5 11,2 11 6 21 11 ZO 1031,4 19 60 0,0
15.02.2019 11:00:00 8,4 0,6 10,5 10 5 16 9 O 1032,1 20 60 0,0
15.02.2019 10:00:00 7,5 -0,5 7,5 8 5 14 7 ZO 1032,4 20 60 0,0
15.02.2019 09:00:00 5,5 -1,2 3,3 8 4 20 11 OZO 1032,6 20 51 0,0
15.02.2019 08:00:00 4,4 -1,6 2,7 13 7 20 11 OZO 1032,6 20 0 0,0
15.02.2019 07:00:00 4,6 -1,6 2,9 12 7 23 12 OZO 1032,5 20 0 0,0
15.02.2019 06:00:00 4,6 -1,6 2,9 13 7 22 12 OZO 1032,4 20 0 0,0
15.02.2019 05:00:00 4,7 -1,5 3,3 12 7 24 13 OZO 1032,3 20 0 0,0
15.02.2019 04:00:00 4,8 -1,9 3,5 13 7 22 12 O 1032,8 20 0 0,0
15.02.2019 03:00:00 5,2 -2,2 3,7 11 6 19 10 O 1032,7 20 0 0,0
15.02.2019 02:00:00 5,8 -2,8 4,2 10 5 18 10 O 1032,8 20 0 0,0
15.02.2019 01:00:00 6,0 -2,6 4,3 11 6 19 10 O 1033,3 20 0 0,0
15.02.2019 00:00:00 6,2 -1,9 3,8 10 6 20 11 O 1033,5 20 0 0,0
14.02.2019 23:00:00 6,5 -1,7 4,6 9 5 20 11 O 1033,3 20 0 0,0
14.02.2019 22:00:00 7,5 -1,7 4,1 11 6 18 10 O 1033,1 20 0 0,0
14.02.2019 21:00:00 6,8 -1,4 3,3 8 4 13 7 O 1033,3 20 0 0,0
14.02.2019 20:00:00 7,5 -1,7 3,1 8 4 11 6 OZO 1033,4 20 0 0,0
14.02.2019 19:00:00 7,6 -1,4 3,6 7 4 12 7 OZO 1033,4 20 0 0,0
14.02.2019 18:00:00 8,1 -1,2 6,7 9 5 13 7 ZO 1033,3 20 31 0,0
14.02.2019 17:00:00 9,5 1,1 10,4 8 4 16 9 ZO 1033,1 20 55 0,0
14.02.2019 16:00:00 11,9 1,5 14,2 10 5 20 11 ZZO 1033,3 20 60 0,0
14.02.2019 15:00:00 11,9 2,1 15,2 13 7 22 12 ZZO 1033,7 20 60 0,0
14.02.2019 14:00:00 11,4 1,9 12,9 12 7 22 12 ZZO 1034,4 20 60 0,0

tt = temperatuur
td = dauwpunt
tt 5cm = temperatuur 5cm
ff = windsnelheid
fx = windstoten
dd = windrichting
ppp = luchtdruk
vv = zicht
sd = Zonneschijnduur
rr = neerslag

Weerstations in de omgeving